Skip Page Navigation
NASA JPL Caltech
NASA Logo - Jet Propulsion Laboratory + View the NASA Portal
+ Near-Earth Object (NEO) Program
Search JPL
JPL Home Earth Solar System Stars & Galaxies Technology
JPL Solar System Dynamics
BODIES ORBITS EPHEMERIDES TOOLS PHYSICAL DATA DISCOVERY FAQ SITE MAP
JPL Small-Body Database Browser
Search: [ help ]  
6044 Hammer-Purgstall (1991 RW4)
Classification: Main-belt Asteroid          SPK-ID: 2006044
Ephemeris | Orbit Diagram | Orbital Elements | Physical Parameters | Discovery Circumstances | Close-Approach Data ]

[ show orbit diagram ]
Orbital Elements at Epoch 2457000.5 (2014-Dec-09.0) TDB
Reference: JPL 12 (heliocentric ecliptic J2000)
 Element Value Uncertainty (1-sigma)   Units 
e .1555818968663817 5.8766e-08  
a 2.774176751097894 1.9776e-08 AU
q 2.342565069919468 1.646e-07 AU
i 8.903950439859127 7.7318e-06 deg
node 1.244908179491983 3.1125e-05 deg
peri 308.5347662811314 3.9755e-05 deg
M 53.56539532057274 2.4015e-05 deg
tp 2456749.379925086654
(2014-Apr-01.87992509)
0.00011311 JED
period 1687.716975255547
4.62
1.8047e-05
4.941e-08
d
yr
n .213305906901535 2.2808e-09 deg/d
Q 3.205788432276321 2.2853e-08 AU
  Orbit Determination Parameters
   # obs. used (total)      1049  
   data-arc span      16016 days (43.85 yr)  
   first obs. used      1971-03-24  
   last obs. used      2015-01-28  
   planetary ephem.      DE431  
   SB-pert. ephem.      SB431-BIG16  
   condition code      0  
   fit RMS      .49133  
   data source      ORB  
   producer      Otto Matic  
   solution date      2015-Mar-09 14:01:55  

Additional Information
 Earth MOID = 1.34193 AU 
 T_jup = 3.301 
[ show covariance matrix ]

Ephemeris | Orbit Diagram | Orbital Elements | Physical Parameters | Discovery Circumstances | Close-Approach Data ]

Physical Parameter Table
Parameter Symbol Value Units Sigma Reference Notes
absolute magnitude H 13.4 mag n/a MPO265990  

6044 Hammer-Purgstall (1991 RW4)          Discovered 1991-Sep-13 by Borngen and Schmadel at Tautenburg
Reference: DISCOVERY.DBLast Updated: 2003-08-29

[ show close-approach data ]
Alternate Designations
 1991 RW4 = 1977 RF10 = 1987 YN3 
Ephemeris | Orbit Diagram | Orbital Elements | Physical Parameters | Discovery Circumstances | Close-Approach Data ]
ABOUT SSD CREDITS/AWARDS PRIVACY/COPYRIGHT GLOSSARY LINKS
FirstGov 2015-Jul-31 00:58 UT
(server date/time)  
NASA Home Page
Site Manager:   Ryan S. Park
Webmaster  Alan B. Chamberlin